Home   Weather   Schmallenberg   Past weeks

Flag for Germany Past Weather in Schmallenberg, North Rhine-Westphalia, Germany — Yesterday and Last 2 Weeks

Now
48 °F

Clear.


Feels Like: 44 °F
Forecast: 41 / 44 °F
Wind: 10 mph from Southwest

Location: Paderborn / Lippstadt

Current Time: Dec 10, 2016 at 2:30:54 am

Latest Report: Dec 10, 2016 at 12:50 am


Visibility: 10 mi

Pressure: 30.27 "Hg

Humidity: 76%

Dew Point: 41 °F

Location of SchmallenbergLocation

Past Weather in Schmallenberg — Graph

°F

Schmallenberg Temperature Yesterday

Maximum temperature yesterday: 50 °F (at 11:50 am)
Minimum temperature yesterday: 43 °F (at 12:50 am)
Average temperature yesterday: 48 °F

High & Low Weather Summary for the Past Weeks

 TemperatureHumidityPressure
High54 °F (Dec 8, 11:50 am)100% (Nov 27, 9:50 am)30.57 "Hg (Nov 27, 9:50 am)
Low18 °F (Nov 29, 6:50 am)28% (Nov 30, 11:50 am)30.04 "Hg (Nov 27, 12:50 am)
Average35 °F76%30.30 "Hg
* Reported Nov 25 12:20 am — Dec 10 12:50 am, Schmallenberg, Weather by CustomWeather, © 2016

Note: Actual official high and low records may vary slightly from our data, if they occured in-between our weather recording intervals... More about our weather records

Advertising

Schmallenberg Weather History for the Previous 24 Hours

Scroll right to see more
 ConditionsComfort  
Time TempWeatherWind HumidityBarometerVisibility
12:50 am
Sat, Dec 10
48 °FClear.10 mph76%30.27 "Hg10 mi
12:20 am48 °FClear.13 mph76%30.27 "Hg10 mi
11:50 pm
Fri, Dec 9
50 °FClear.13 mph71%30.27 "Hg10 mi
11:20 pm48 °FClear.12 mph76%30.27 "Hg10 mi
10:50 pm48 °FClear.9 mph76%30.30 "Hg10 mi
10:20 pm46 °FClear.10 mph82%30.30 "Hg10 mi
9:50 pm48 °FClear.13 mph82%30.30 "Hg10 mi
9:20 pm48 °FClear.12 mph87%30.30 "Hg10 mi
8:50 pm50 °FPassing clouds.12 mph82%30.30 "HgN/A
7:50 pm50 °FMostly cloudy.12 mph88%30.30 "HgN/A
7:20 pm50 °FOvercast.12 mph82%30.30 "HgN/A
6:50 pm50 °FPassing clouds.12 mph82%30.30 "HgN/A
6:20 pm50 °FOvercast.12 mph82%30.30 "HgN/A
5:50 pm50 °FOvercast.12 mph88%30.33 "HgN/A
5:20 pm50 °FDrizzle. Overcast.10 mph88%30.33 "HgN/A
4:50 pm50 °FDrizzle. Low clouds.9 mph88%30.33 "Hg5 mi
4:20 pm50 °FDrizzle. Fog.10 mph88%30.33 "Hg3 mi
3:50 pm50 °FPartly sunny.8 mph88%30.33 "Hg6 mi
3:20 pm50 °FPartly sunny.10 mph88%30.33 "Hg6 mi
2:50 pm50 °FPartly sunny.9 mph88%30.33 "Hg6 mi
2:20 pm50 °FPartly sunny.10 mph88%30.33 "Hg6 mi
1:50 pm50 °FPartly sunny.8 mph82%30.36 "Hg6 mi
1:20 pm48 °FPartly sunny.7 mph87%30.36 "Hg5 mi
12:50 pm48 °FPartly sunny.9 mph87%30.36 "HgN/A
12:20 pm48 °FPartly sunny.10 mph87%30.36 "HgN/A
11:50 am50 °FBroken clouds.9 mph82%30.36 "HgN/A
11:20 am48 °FPartly sunny.9 mph87%30.36 "HgN/A
10:50 am48 °FPartly sunny.10 mph87%30.36 "HgN/A
10:20 am48 °FBroken clouds.10 mph87%30.36 "Hg5 mi
9:50 am48 °FBroken clouds.10 mph87%30.33 "Hg4 mi
9:20 am48 °FPartly sunny.12 mph87%30.33 "Hg4 mi
8:50 am48 °FPartly sunny.12 mph87%30.33 "Hg3 mi
8:20 am48 °FFog.12 mph87%30.33 "Hg2 mi
7:50 am46 °FDrizzle. Fog.12 mph93%30.33 "Hg1 mi
7:20 am46 °FDrizzle. Fog.14 mph93%30.33 "Hg1 mi
6:50 am46 °FDrizzle. Fog.15 mph93%30.30 "Hg2 mi
6:20 am46 °FPassing clouds.13 mph93%30.30 "Hg5 mi
5:50 am45 °FPassing clouds.14 mph93%30.30 "Hg5 mi
5:20 am46 °FPassing clouds.13 mph87%30.30 "Hg5 mi
4:50 am46 °FPassing clouds.13 mph87%30.30 "Hg5 mi
4:20 am46 °FPassing clouds.13 mph87%30.30 "Hg5 mi
3:50 am45 °FPassing clouds.13 mph93%30.30 "Hg5 mi
3:20 am45 °FPassing clouds.14 mph93%30.30 "Hg5 mi
2:50 am45 °FPassing clouds.14 mph87%30.30 "Hg4 mi
2:20 am45 °FPassing clouds.14 mph87%30.30 "Hg4 mi
Weather by CustomWeather, © 2016

See weather overviewHow to use our weather pages